CW7580 Weather Reports


Display with metric or nautical units.
time (UTC)temp
F
wind
direction
speed
MPH
gust
MPH
rain 1hr
in
rain 24hr
in
rain mn
in
humidity
%
barometer
mb
20260504231526 76 191 5.0 9.0 0.00 0.00 0.00 49 1012.0
20260504231041 76 184 1.0 8.0 0.00 0.00 0.00 49 1012.0
20260504231038 77 184 1.0 11.0 0.00 0.00 0.00 49 1012.0
20260504230559 76 184 3.0 11.0 0.00 0.00 0.00 48 1012.1
20260504230114 77 190 6.0 12.0 0.00 0.00 0.00 48 1012.1
20260504230110 77 184 7.0 12.0 0.00 0.00 0.00 48 1012.1
20260504225545 77 184 5.0 12.0 0.00 0.00 0.00 48 1012.1
20260504225114 77 207 6.0 11.0 0.00 0.00 0.00 48 1012.1
20260504224632 77 142 0.0 11.0 0.00 0.00 0.00 47 1012.1
20260504224057 78 160 1.0 6.0 0.00 0.00 0.00 47 1012.2
20260504224020 77 160 1.0 6.0 0.00 0.00 0.00 46 1012.2
20260504223534 78 157 0.0 7.0 0.00 0.00 0.00 47 1012.2
20260504223054 78 157 2.0 9.0 0.00 0.00 0.00 46 1012.3
20260504223050 78 157 2.0 9.0 0.00 0.00 0.00 46 1012.3
20260504222632 78 188 2.0 9.0 0.00 0.00 0.00 46 1012.4
20260504222145 78 190 3.0 10.0 0.00 0.00 0.00 47 1012.3
20260504222052 78 188 2.0 10.0 0.00 0.00 0.00 46 1012.3
20260504221530 78 202 6.0 10.0 0.00 0.00 0.00 46 1012.4
20260504221044 78 157 1.0 8.0 0.00 0.00 0.00 48 1012.3
20260504221040 78 148 1.0 8.0 0.00 0.00 0.00 46 1012.3
20260504220553 78 175 0.0 10.0 0.00 0.00 0.00 46 1012.4
20260504220112 78 190 4.0 11.0 0.00 0.00 0.00 46 1012.7
20260504220108 79 180 4.0 11.0 0.00 0.00 0.00 46 1012.7
20260504215528 78 184 6.0 11.0 0.00 0.00 0.00 47 1012.5
20260504215046 78 186 1.0 11.0 0.00 0.00 0.00 49 1012.6
20260504215041 79 191 1.0 11.0 0.00 0.00 0.00 49 1012.6
20260504214542 78 176 1.0 11.0 0.00 0.00 0.00 47 1012.6
20260504214054 78 154 1.0 10.0 0.00 0.00 0.00 48 1012.6
20260504214050 79 151 1.0 10.0 0.00 0.00 0.00 49 1012.6
20260504213539 78 163 4.0 10.0 0.00 0.00 0.00 47 1012.6
20260504213058 78 184 1.0 14.0 0.00 0.00 0.00 47 1012.6
20260504213053 78 184 1.0 14.0 0.00 0.00 0.00 47 1012.6
20260504212626 78 173 2.0 14.0 0.00 0.00 0.00 48 1012.6
20260504212055 79 176 7.0 11.0 0.00 0.00 0.00 48 1012.6
20260504212003 79 177 3.0 10.0 0.00 0.00 0.00 49 1012.6
20260504211528 78 186 2.0 10.0 0.00 0.00 0.00 49 1012.9
20260504211043 78 185 3.0 10.0 0.00 0.00 0.00 50 1012.8
20260504211037 78 186 4.0 10.0 0.00 0.00 0.00 50 1012.8
20260504210559 78 192 4.0 14.0 0.00 0.00 0.00 49 1012.9
20260504210109 78 180 6.0 14.0 0.00 0.00 0.00 50 1012.9
20260504210105 79 194 4.0 10.0 0.00 0.00 0.00 50 1013.0
20260504205524 78 170 2.0 10.0 0.00 0.00 0.00 51 1012.9
20260504205041 78 175 4.0 13.0 0.00 0.00 0.00 50 1012.9
20260504205036 78 165 4.0 13.0 0.00 0.00 0.00 50 1012.9
20260504204557 78 178 6.0 21.0 0.00 0.00 0.00 50 1012.9
20260504204101 78 168 6.0 21.0 0.00 0.00 0.00 51 1013.0
20260504203551 78 182 2.0 12.0 0.00 0.00 0.00 50 1013.0
20260504203136 78 140 5.0 12.0 0.00 0.00 0.00 51 1013.2
20260504202534 78 163 0.0 13.0 0.00 0.00 0.00 52 1013.3
20260504202049 78 178 4.0 13.0 0.00 0.00 0.00 52 1013.3
20260504202042 78 180 4.0 13.0 0.00 0.00 0.00 52 1013.3
20260504201534 77 181 2.0 9.0 0.00 0.00 0.00 53 1013.4
20260504201044 78 161 2.0 11.0 0.00 0.00 0.00 52 1013.4
20260504201040 78 163 2.0 11.0 0.00 0.00 0.00 52 1013.5
20260504200558 78 198 6.0 12.0 0.00 0.00 0.00 49 1013.5
20260504200118 79 229 3.0 12.0 0.00 0.00 0.00 50 1013.7
20260504200111 79 229 2.0 12.0 0.00 0.00 0.00 50 1013.7
20260504195528 78 184 0.0 10.0 0.00 0.00 0.00 50 1013.8
20260504195045 78 213 4.0 13.0 0.00 0.00 0.00 51 1014.0
20260504195041 78 207 5.0 13.0 0.00 0.00 0.00 51 1014.0
20260504194535 78 189 7.0 16.0 0.00 0.00 0.00 51 1014.0
20260504194044 78 189 6.0 16.0 0.00 0.00 0.00 51 1014.2
20260504194040 78 178 5.0 11.0 0.00 0.00 0.00 51 1014.2
20260504193535 78 169 1.0 11.0 0.00 0.00 0.00 52 1014.3
20260504193051 78 172 0.0 8.0 0.00 0.00 0.00 51 1014.3
20260504193045 78 172 1.0 8.0 0.00 0.00 0.00 51 1014.4
20260504192533 77 240 1.0 11.0 0.00 0.00 0.00 51 1014.4
20260504192049 77 172 6.0 14.0 0.00 0.00 0.00 50 1014.5
20260504192045 78 173 5.0 14.0 0.00 0.00 0.00 50 1014.5
20260504191535 77 184 7.0 14.0 0.00 0.00 0.00 51 1014.5
20260504191048 77 205 6.0 14.0 0.00 0.00 0.00 50 1014.4
20260504191044 78 205 6.0 14.0 0.00 0.00 0.00 50 1014.4
20260504190600 77 200 1.0 8.0 0.00 0.00 0.00 50 1014.5
20260504190112 77 216 1.0 12.0 0.00 0.00 0.00 50 1014.6
20260504190107 78 216 2.0 12.0 0.00 0.00 0.00 51 1014.6
20260504185543 77 171 3.0 10.0 0.00 0.00 0.00 52 1014.4
20260504185058 76 138 4.0 14.0 0.00 0.00 0.00 51 1014.5
20260504184531 77 147 2.0 7.0 0.00 0.00 0.00 52 1014.7
20260504184042 76 194 2.0 9.0 0.00 0.00 0.00 54 1014.7
20260504184038 77 194 2.0 9.0 0.00 0.00 0.00 51 1014.7
20260504183550 77 191 2.0 11.0 0.00 0.00 0.00 52 1014.8
20260504183104 77 157 4.0 11.0 0.00 0.00 0.00 52 1014.9
20260504183053 77 157 6.0 11.0 0.00 0.00 0.00 52 1014.9
20260504182625 77 218 1.0 13.0 0.00 0.00 0.00 53 1015.0
20260504182048 77 179 9.0 13.0 0.00 0.00 0.00 51 1015.2
20260504182010 77 181 9.0 13.0 0.00 0.00 0.00 51 1015.1
20260504181527 76 180 2.0 9.0 0.00 0.00 0.00 53 1015.2
20260504181049 76 178 2.0 13.0 0.00 0.00 0.00 51 1015.2
20260504181043 77 178 3.0 13.0 0.00 0.00 0.00 50 1015.3
20260504180602 76 147 5.0 13.0 0.00 0.00 0.00 51 1015.3
20260504180130 76 184 2.0 13.0 0.00 0.00 0.00 52 1015.3
20260504180115 77 207 3.0 13.0 0.00 0.00 0.00 52 1015.3
20260504175624 76 217 1.0 14.0 0.00 0.00 0.00 51 1015.4
20260504175140 76 178 7.0 14.0 0.00 0.00 0.00 49 1015.4
20260504175048 77 165 8.0 14.0 0.00 0.00 0.00 50 1015.4
20260504174515 77 163 3.0 11.0 0.00 0.00 0.00 51 1015.3
20260504174043 77 195 3.0 10.0 0.00 0.00 0.00 51 1015.3
20260504174039 77 181 3.0 10.0 0.00 0.00 0.00 48 1015.4
20260504173529 77 186 1.0 8.0 0.00 0.00 0.00 51 1015.4
20260504173049 76 237 2.0 13.0 0.00 0.00 0.00 51 1015.5
20260504173038 76 237 4.0 13.0 0.00 0.00 0.00 50 1015.5
20260504172528 75 243 3.0 13.0 0.00 0.00 0.00 52 1015.5
20260504172039 75 184 6.0 10.0 0.00 0.00 0.00 52 1015.4
20260504172035 76 190 6.0 9.0 0.00 0.00 0.00 52 1015.5
20260504171525 75 154 0.0 12.0 0.00 0.00 0.00 53 1015.4
20260504171041 75 188 3.0 12.0 0.00 0.00 0.00 52 1015.4
20260504171037 75 188 2.0 12.0 0.00 0.00 0.00 52 1015.4
20260504170558 75 150 2.0 10.0 0.00 0.00 0.00 51 1015.4
20260504170111 75 117 1.0 12.0 0.00 0.00 0.00 51 1015.3
20260504170107 75 117 3.0 12.0 0.00 0.00 0.00 51 1015.4
20260504160127 75 81 5.0 8.0 0.00 0.00 0.00 54 1016.1
20260504151056 73 184 2.0 7.0 0.00 0.00 0.00 59 1016.2
20260504151053 74 182 2.0 6.0 0.00 0.00 0.00 59 1016.2
20260504150546 73 184 0.0 6.0 0.00 0.00 0.00 58 1016.3
20260504150109 73 184 1.0 6.0 0.00 0.00 0.00 58 1016.3
20260504150105 73 184 1.0 6.0 0.00 0.00 0.00 60 1016.3
20260504141047 69 189 3.0 7.0 0.00 0.00 0.00 69 1016.4
20260504141043 70 189 2.0 7.0 0.00 0.00 0.00 69 1016.5
20260504140600 69 263 0.0 6.0 0.00 0.00 0.00 72 1016.4
20260504140123 68 267 0.0 6.0 0.00 0.00 0.00 72 1016.5
20260504140117 69 267 1.0 6.0 0.00 0.00 0.00 72 1016.5
20260504130545 62 155 0.0 1.0 0.00 0.00 0.00 86 1016.3
20260504110502 53 184 0.0 0.0 0.00 0.00 0.00 95 1015.5
20260504100554 54 184 0.0 0.0 0.00 0.00 0.00 94 1015.5
20260504081541 55 184 0.0 0.0 0.00 0.00 0.00 92 1015.7
20260504081039 55 184 0.0 0.0 0.00 0.00 0.00 91 1015.7
20260504080542 56 184 0.0 0.0 0.00 0.00 0.00 91 1015.8
20260504050536 60 184 0.0 0.0 0.00 0.00 0.00 81 1017.1
20260504045534 61 184 0.0 1.0 0.00 0.00 0.00 80 1017.1
20260504045034 61 184 0.0 1.0 0.00 0.00 0.00 79 1017.3
20260504044512 61 184 0.0 0.0 0.00 0.00 0.00 79 1017.3
20260504044005 61 184 0.0 0.0 0.00 0.00 0.00 78 1017.4
20260504043504 61 184 0.0 1.0 0.00 0.00 0.00 78 1017.4
20260504043010 62 184 0.0 6.0 0.00 0.00 0.00 77 1017.4
20260504042504 62 184 0.0 6.0 0.00 0.00 0.00 77 1017.4
20260504042004 61 184 0.0 2.0 0.00 0.00 0.00 77 1017.4
20260504041506 62 184 0.0 1.0 0.00 0.00 0.00 77 1017.4
20260504041001 62 184 0.0 1.0 0.00 0.00 0.00 76 1017.4
20260504040501 62 184 0.0 1.0 0.00 0.00 0.00 76 1017.4
20260504040001 62 184 0.0 1.0 0.00 0.00 0.00 77 1017.5
20260504035502 62 184 0.0 1.0 0.00 0.00 0.00 77 1017.5
20260504035001 62 184 0.0 2.0 0.00 0.00 0.00 76 1017.4
20260504034501 62 184 0.0 2.0 0.00 0.00 0.00 76 1017.5
20260504034100 62 184 0.0 1.0 0.00 0.00 0.00 76 1017.4
20260504033600 63 184 0.0 1.0 0.00 0.00 0.00 75 1017.4
20260504033100 63 184 0.0 2.0 0.00 0.00 0.00 74 1017.5
20260504032600 63 184 0.0 1.0 0.00 0.00 0.00 74 1017.6
20260504032100 63 184 0.0 2.0 0.00 0.00 0.00 73 1017.6
20260504031542 64 184 0.0 2.0 0.00 0.00 0.00 72 1017.6
20260504031040 64 184 0.0 4.0 0.00 0.00 0.00 71 1017.6
20260504030538 64 184 0.0 7.0 0.00 0.00 0.00 71 1017.5
20260504030038 64 184 0.0 7.0 0.00 0.00 0.00 71 1017.5
20260504015630 66 155 0.0 1.0 0.00 0.00 0.00 72 1016.8
20260504015054 68 155 0.0 0.0 0.00 0.00 0.00 70 1016.8
20260504015002 67 155 0.0 0.0 0.00 0.00 0.00 70 1016.8
20260504014531 68 155 0.0 0.0 0.00 0.00 0.00 66 1016.7
20260504014044 68 155 0.0 0.0 0.00 0.00 0.00 65 1016.7
20260504014039 68 155 0.0 0.0 0.00 0.00 0.00 65 1016.7
20260504013530 68 155 0.0 0.0 0.00 0.00 0.00 64 1016.6
20260504013105 68 155 0.0 1.0 0.00 0.00 0.00 63 1016.6
20260504013043 68 155 0.0 1.0 0.00 0.00 0.00 63 1016.6
20260504012623 68 155 0.0 1.0 0.00 0.00 0.00 63 1016.6
20260504012045 69 155 0.0 1.0 0.00 0.00 0.00 66 1016.5
20260504012008 68 155 0.0 1.0 0.00 0.00 0.00 66 1016.5
20260504011534 69 155 0.0 4.0 0.00 0.00 0.00 66 1016.4
20260504011056 69 155 0.0 4.0 0.00 0.00 0.00 63 1016.4
20260504011052 70 155 0.0 4.0 0.00 0.00 0.00 62 1016.4
20260504010550 69 241 0.0 4.0 0.00 0.00 0.00 61 1016.4
20260504010109 70 360 0.0 4.0 0.00 0.00 0.00 62 1016.4
20260504010105 71 360 0.0 4.0 0.00 0.00 0.00 62 1016.4
20260504005526 71 176 0.0 0.0 0.00 0.00 0.00 58 1016.3
20260504005042 72 176 0.0 2.0 0.00 0.00 0.00 55 1016.3
20260504005037 72 176 0.0 2.0 0.00 0.00 0.00 55 1016.3
20260504004520 72 176 0.0 5.0 0.00 0.00 0.00 52 1016.3
20260504004053 72 178 1.0 6.0 0.00 0.00 0.00 52 1016.2
20260504004049 73 178 2.0 6.0 0.00 0.00 0.00 51 1016.2
20260504003537 72 194 1.0 6.0 0.00 0.00 0.00 51 1016.2
20260504003054 73 194 1.0 6.0 0.00 0.00 0.00 50 1016.1
20260504003050 73 194 2.0 6.0 0.00 0.00 0.00 50 1016.1
20260504002544 73 182 2.0 6.0 0.00 0.00 0.00 50 1016.1
20260504002056 73 182 1.0 6.0 0.00 0.00 0.00 49 1016.2
20260504001534 73 182 2.0 6.0 0.00 0.00 0.00 49 1016.2
20260504001052 74 182 4.0 6.0 0.00 0.00 0.00 48 1016.1
20260504001048 74 182 5.0 6.0 0.00 0.00 0.00 48 1016.2
20260504000606 74 175 3.0 7.0 0.00 0.00 0.00 47 1016.1
20260504000124 74 190 3.0 7.0 0.00 0.00 0.00 48 1016.2
20260504000121 75 190 2.0 7.0 0.00 0.00 0.00 48 1016.2
20260503235536 74 187 3.0 7.0 0.00 0.00 0.00 47 1016.1
20260503235050 75 195 3.0 8.0 0.00 0.00 0.00 47 1016.1
20260503235046 75 195 4.0 8.0 0.00 0.00 0.00 47 1016.1
20260503234622 75 196 3.0 8.0 0.00 0.00 0.00 46 1016.1
20260503234055 76 183 5.0 7.0 0.00 0.00 0.00 46 1016.1
20260503234008 75 183 5.0 7.0 0.00 0.00 0.00 46 1016.1
20260503233524 75 187 1.0 8.0 0.00 0.00 0.00 46 1016.2
20260503233039 76 190 4.0 8.0 0.00 0.00 0.00 45 1016.2
20260503233035 77 192 4.0 8.0 0.00 0.00 0.00 45 1016.2
20260503232524 76 171 0.0 5.0 0.00 0.00 0.00 45 1016.3
20260503232042 76 168 1.0 9.0 0.00 0.00 0.00 46 1016.3
20260503232037 76 168 2.0 9.0 0.00 0.00 0.00 45 1016.3